一网星座-0194星 (ONEWEB-0194 )

导读

ONEWEB-0194是英国OneWeb低轨卫星互联网星座中的一员,于2021年4月25日发射,服务全球宽带互联网接入。作为OneWeb批量发射组网的一部分,它运行在近地轨道,通过星座组网弥补地面网络覆盖盲区,为偏远地区、移动场景提供连通服务,推进全球互联基础设施建设,是低轨卫星互联网部署的重要单元。

基本信息
目录编号:
48237
目录名称:
ONEWEB-0194
国际标识:
2021-031AD
轨道中心:
EARTH
卫星名称:
一网星座-0194星
卫星全名:
一网星座-0194星 (ONEWEB-0194 )
卫星状态:
在轨 (已飞行1876 天)
发射日期:
2021-04-25 UTC
国别 :
英国 (GB)
星等 :
--
轨道信息
数据来源 国际轨道数据
星历时间: 2026-06-14T04:33:45+0800
13小时前
查看轨道信息
半长轴: 7583.929km
偏心率: 0.0001713
轨道倾角: 87.896°
近地点辐角 97.220°
升交点赤经 290.372°
平近点角 262.913°
近地点: 1204.492km
远地点: 1207.092km
周期: 109.547分钟
每日圈数: 13.145024
详细信息
平衡模式:
三轴稳定
覆盖范围:
全球
运营商:
一网卫星公司
运营商所在国:
英国
制造商(研发单位):
一网卫星公司
制造商所在国:
英国
使用方式:
暂无
卫星简介
OneWeb卫星网络由648颗重约125公斤的微型卫星组成,运行在1200公里的轨道上。 每颗卫星都能够提供至少每秒8千兆位的吞吐量,以使用其高吞吐量的Ku频段有效载荷为家庭和移动平台提供互联网接入。该卫星仍在工作。
2D轨道图
3D轨道图
轨道高度分析图
轨道倾角分析图
轨道综合分析图
查看轨道综合分析图